Meath Environmental Platform

Observations for Trim Patrick St

Time AQI Temp °C Hum % Pres Pa CO μg/m³ H₂S μg/m³ NO μg/m³ NO₂ μg/m³ O₃ μg/m³ SO₂ μg/m³ PM1 μg/m³ PM2.5 μg/m³ PM10 μg/m³
Saturday 1 August 2026
06:37 2 10.6 83 38,460 0.53 2.63 4.11 21.62 27.38 0 11.43 16.11 17.72
06:35 2 10.6 83 38,460 0.52 2.99 4.15 30.44 31.75 0 11.43 18.2 20.01
06:34 2 10.6 83 38,460 0.52 2.14 4.13 17.86 23.81 0 6.29 12.64 13.9
06:33 2 10.5 83 38,460 0.53 2.78 4.16 23.34 22.46 0 8 14.72 16.19
06:30 2 10.5 83 38,460 0.51 2.03 4.16 17.02 24.66 0 11.43 18.2 20.01
06:26 2 10.4 83 38,460 0.53 1.44 4.17 20.88 14.19 0 13.14 16.81 18.49
06:25 2 10.4 83 38,460 0.53 1.54 4.17 18.69 16.23 0 11.43 14.03 15.44
06:24 2 10.4 83 38,460 0.53 2.49 4.17 20.88 26.02 0 12.29 19.58 21.54
06:23 2 10.4 83 38,460 0.53 1.16 4.13 19.58 21.33 0 11.43 16.85 17.1
06:22 2 10.4 83 38,460 0.53 1.44 4.16 19.41 15.43 0 12.29 16.81 18.49
06:21 2 10.4 83 38,460 0.53 0.98 4.12 17.1 20.08 0 14 20.97 23.07
06:20 2 10.4 83 38,460 0.52 1.67 4.12 17.77 18.72 0 13.14 18.89 20.78
06:19 2 10.4 83 38,460 0.53 2.42 4.18 23.38 18.55 0 13.14 18.89 20.78
06:18 2 10.4 83 38,460 0.52 2.06 4.27 21.7 20.98 0 14 21.66 23.83
06:17 2 10.4 83 38,460 0.52 1.82 4.22 18 14.38 0 14 20.97 23.07
06:16 2 10.4 83 38,460 0.52 3.45 4.28 23.68 34.14 0 12.29 18.23 20.05
06:15 2 10.3 83 38,460 0.53 3.26 4.33 22.36 12.37 0 13.14 20.3 22.33
06:14 2 10.3 82 38,460 0.55 3.08 4.32 31.76 30.24 0 14.86 21.08 23.19
06:13 2 10.3 82 38,460 0.54 2.46 4.23 17.95 18.57 0 14 20.35 22.39
06:12 2 10.3 82 38,460 0.53 3.57 4.26 24.04 35.84 0 15.71 23.13 25.45